Wind_Speed
21 23 25 22 16 10 9 9 8 7 12 12 23 22 27 28 21 19 15 15 13 21 22 22 21 18 19 20 18 17 14 11 13 12 17 20 19 21 22 21 22 20 17 17
32 34 28 21 19 15 12 12 12 12 13 19 20 16 16 28 30 24 20 17 15 16 29 28 25 22 20 18 17 16 15 13 14 14 18 19 21 21 22 21 21 18 15 14
41 36 28 26 25 21 18 16 17 14 15 11 13 18 22 26 24 23 24 23 20 19 22 33 29 25 23 20 17 17 17 15 16 18 19 22 22 22 22 21 20 17 15 12
44 35 35 33 33 27 26 16 19 18 18 16 8 8 12 14 17 21 26 29 27 25 23 31 31 28 24 21 19 19 19 18 18 18 20 21 21 21 22 20 18 16 12 10
35 42 41 40 38 31 30 20 23 21 21 21 23 14 27 24 25 27 29 28 30 27 25 29 31 27 24 24 23 23 23 22 21 20 21 22 22 23 22 19 16 13 11 8
32 24 25 39 36 33 27 26 26 23 18 13 31 22 38 35 32 32 31 27 28 27 26 27 27 27 28 26 26 27 29 27 25 23 23 24 25 24 21 18 15 11 9 7
29 36 30 22 27 25 26 26 7 4 5 10 26 22 35 32 33 36 37 26 20 21 25 26 30 28 29 30 29 30 31 31 27 25 26 26 27 26 23 19 15 11 8 7
23 30 40 37 34 29 29 30 15 7 4 3 10 13 28 28 29 25 20 15 20 23 22 21 18 24 25 30 30 32 33 33 31 28 29 30 30 28 25 20 15 13 9 6
20 29 26 32 37 33 34 32 26 26 31 12 14 24 27 18 6 3 5 22 27 24 25 21 19 17 25 27 31 33 34 34 32 30 31 33 32 29 26 22 18 14 10 7
15 19 25 31 29 37 33 19 17 18 6 5 9 15 15 16 15 11 11 18 24 16 21 25 24 21 16 25 27 29 31 35 33 32 34 35 34 31 28 25 21 15 11 8
10 20 20 25 28 37 32 35 29 17 21 8 4 15 24 21 22 18 13 9 8 7 9 17 15 20 18 17 28 30 31 35 37 35 36 38 37 34 31 28 22 18 13 9
6 6 22 35 27 21 28 35 33 27 14 14 18 28 16 20 24 20 20 16 15 14 9 5 6 14 17 18 26 31 34 36 38 36 38 40 39 37 35 29 24 19 13 10
6 3 5 13 27 30 22 22 26 22 18 26 16 11 16 22 25 25 19 20 19 19 20 14 13 15 20 21 21 29 35 38 38 39 39 42 43 41 38 32 26 21 17 13
6 3 2 5 9 8 13 21 19 15 19 23 28 28 35 27 17 20 25 21 20 21 26 20 15 16 20 22 22 24 35 38 40 41 41 44 45 43 40 35 31 26 22 18
8 6 12 14 14 10 9 15 16 14 11 16 28 29 33 26 30 20 19 22 20 18 19 20 21 18 21 24 26 23 31 37 39 41 42 44 45 45 43 39 34 30 25 21
9 5 9 17 9 7 13 11 7 11 10 13 16 27 29 22 30 28 17 22 18 20 20 23 21 19 24 23 25 25 28 37 38 39 41 43 46 46 45 41 36 33 29 25
7 5 7 9 8 7 6 9 9 8 8 10 11 21 31 32 27 26 23 19 19 19 20 22 23 20 20 21 21 25 24 33 37 38 40 44 46 47 45 43 39 35 32 29
8 4 6 8 6 5 8 6 8 6 2 7 10 19 28 32 24 24 22 21 22 23 24 26 23 23 22 21 20 21 21 29 35 38 41 42 45 46 46 45 42 37 36 32
14 7 4 4 6 5 10 5 4 9 3 8 13 15 25 27 27 24 24 25 22 21 18 23 22 22 22 24 21 22 19 26 32 37 39 39 43 44 46 47 44 40 38 35
18 15 9 4 3 5 3 10 4 4 8 4 11 11 18 24 29 21 26 28 25 24 16 7 17 14 24 24 22 20 20 25 31 34 35 36 37 41 44 45 45 42 40 38
19 19 16 10 5 4 9 10 5 7 3 7 8 8 9 23 29 28 29 30 31 28 14 10 16 20 20 20 20 20 21 25 23 28 32 33 34 38 40 43 44 44 42 41
4 10 15 12 6 4 8 5 3 3 1 4 7 1 8 20 30 31 25 31 29 18 14 14 15 21 17 21 22 22 22 16 19 22 26 29 31 33 37 39 42 43 42 42
10 7 10 10 8 8 5 7 7 6 3 2 4 5 4 12 24 31 25 33 29 22 16 15 15 21 19 21 22 20 17 16 17 19 22 25 29 31 34 36 37 41 41 38
5 10 7 12 13 12 13 7 7 6 6 5 3 9 6 6 14 20 27 30 24 14 11 10 12 18 22 23 22 20 17 17 18 19 21 23 27 30 33 34 36 36 35 39
4 8 11 13 16 13 15 10 11 9 10 8 9 6 5 3 8 23 30 28 24 20 15 13 8 14 22 23 23 19 16 16 17 19 21 23 24 27 30 33 35 36 37 38
15 3 6 11 6 17 12 12 14 12 15 14 12 9 9 6 8 15 27 29 29 26 21 15 14 14 19 22 24 22 20 20 19 19 18 19 21 24 27 30 32 33 34 37
Wind_Direction
223 217 221 222 235 241 254 273 285 235 294 254 245 251 264 272 281 268 265 259 245 225 214 206 209 194 180 183 180 175 169 167 169 156 154 158 155 143 137 129 120 117 112 102
230 234 227 230 240 243 242 264 257 276 287 274 269 263 245 256 271 280 276 260 247 237 223 214 214 206 196 192 185 182 181 180 174 163 159 166 160 153 145 135 128 122 112 100
230 232 233 239 240 243 245 247 246 271 285 280 279 274 254 255 264 264 264 263 252 248 242 221 217 213 206 192 191 194 191 186 184 176 172 168 167 160 153 145 135 125 113 99
229 230 236 241 243 241 247 244 255 271 274 271 273 284 278 273 286 280 275 266 252 242 241 228 220 218 211 196 194 198 201 195 192 190 173 173 173 167 160 152 141 132 115 89
217 227 232 235 237 241 249 248 259 269 275 273 265 261 277 285 272 281 286 284 256 243 237 228 222 221 219 207 200 199 199 203 199 195 181 179 179 179 168 158 145 131 114 92
217 219 225 235 238 237 241 246 257 265 264 248 254 251 277 271 276 284 281 274 254 235 232 228 224 223 223 215 207 203 198 202 201 197 191 186 188 185 176 166 153 138 127 104
220 221 219 211 220 226 232 243 236 254 203 233 258 256 256 285 288 282 278 264 238 217 222 222 216 210 218 216 208 206 199 204 203 198 196 193 193 190 184 175 161 153 145 116
235 242 228 222 225 221 219 228 211 187 215 245 271 233 267 282 280 275 263 244 229 204 197 204 208 207 210 213 206 208 203 204 207 199 198 198 199 192 186 181 168 166 154 127
239 242 244 235 224 226 226 239 240 244 259 280 268 266 266 279 292 259 238 200 206 221 214 210 200 209 207 208 210 207 209 207 209 204 200 200 201 195 190 186 180 175 162 141
235 248 238 239 229 232 234 234 215 214 164 235 238 240 238 251 279 257 245 225 209 231 233 230 219 214 214 207 210 211 212 213 211 208 202 203 202 198 196 193 185 176 179 160
223 226 230 224 218 227 225 233 236 247 225 202 227 244 252 261 256 278 269 212 215 234 209 215 219 224 217 214 207 210 212 214 211 210 204 205 203 201 200 198 189 187 189 175
9 227 235 233 230 243 242 236 240 231 220 234 250 248 244 254 260 270 269 225 223 216 236 271 253 225 230 227 213 208 211 214 212 211 207 204 206 205 203 201 196 196 194 194
350 340 297 233 240 236 228 222 228 237 240 244 237 250 221 252 254 271 251 234 235 222 223 249 277 249 229 240 233 217 210 213 213 212 209 206 207 206 204 203 201 201 202 206
324 255 236 241 246 243 229 231 231 228 238 254 253 252 247 249 269 256 262 245 239 245 233 244 263 235 238 236 245 227 214 212 214 213 210 207 209 207 207 207 206 208 209 214
302 260 263 266 255 256 232 217 215 223 252 262 264 252 247 247 255 265 266 262 255 251 236 241 246 241 232 232 240 238 220 214 216 215 213 209 209 210 210 211 210 214 215 219
271 285 291 262 257 239 249 251 235 222 243 261 247 247 245 251 248 253 268 252 242 224 244 255 254 230 223 225 233 241 222 215 215 217 216 212 211 212 212 213 215 219 221 223
250 297 318 251 231 224 234 244 225 220 236 277 259 240 239 238 249 248 249 261 258 261 264 254 242 208 221 219 228 240 233 216 216 219 219 215 212 214 214 216 219 220 227 231
248 290 304 277 172 181 164 139 131 150 179 264 276 236 237 235 243 243 250 250 258 261 284 250 230 226 212 213 224 235 238 220 218 220 221 216 215 214 216 218 221 222 230 235
228 249 281 288 276 215 192 183 294 341 15 309 290 253 233 233 227 239 233 243 253 258 279 249 229 211 230 213 209 225 234 222 218 219 220 218 216 215 217 220 222 225 231 238
220 228 237 269 282 225 299 187 304 299 173 342 303 275 228 220 217 221 233 240 242 242 264 194 189 215 215 208 200 217 235 225 221 219 218 218 217 217 219 221 224 227 232 238
205 208 219 237 264 296 298 260 320 172 304 16 343 325 226 214 211 214 220 222 235 246 237 225 217 226 205 198 200 213 228 228 223 221 220 221 219 218 219 222 224 228 233 239
204 195 202 214 221 266 322 262 176 114 106 357 308 312 233 212 208 217 214 215 232 241 229 218 229 214 199 204 207 211 218 216 221 221 222 221 222 220 221 223 226 230 235 239
206 211 182 182 178 196 63 98 138 169 200 224 293 340 204 224 214 218 217 210 223 234 245 226 215 216 203 206 205 203 196 206 214 220 219 219 220 220 222 225 228 232 237 240
259 226 227 207 207 203 253 253 228 210 248 241 323 356 335 191 198 200 198 206 216 208 216 230 207 225 205 201 198 200 211 212 212 213 214 215 219 220 224 229 231 232 231 235
265 224 230 238 214 201 226 251 251 247 244 250 271 299 329 211 186 190 186 185 192 204 221 226 194 216 209 202 204 217 219 220 220 217 218 219 219 221 226 230 233 238 242 249
243 265 221 206 219 225 220 250 260 258 262 265 262 278 302 254 192 190 194 200 208 207 210 196 180 187 209 206 213 217 216 217 217 221 222 221 225 229 232 237 240 244 248 253
Height
3144 3146 3146 3152 3156 3158 3158 3159 3160 3160 3162 3161 3161 3161 3160 3161 3162 3163 3166 3169 3170 3173 3176 3178 3181 3184 3187 3190 3192 3195 3197 3200 3203 3206 3207 3210 3212 3214 3215 3216 3216 3218 3218 3219
3139 3137 3144 3150 3153 3155 3156 3157 3158 3159 3159 3159 3158 3157 3158 3156 3157 3158 3160 3164 3168 3170 3172 3174 3177 3181 3185 3189 3191 3193 3197 3200 3204 3206 3208 3211 3213 3215 3216 3218 3218 3219 3220 3221
3130 3136 3143 3145 3147 3151 3153 3155 3155 3158 3158 3157 3154 3151 3152 3153 3154 3155 3155 3159 3163 3166 3168 3170 3173 3178 3182 3185 3189 3193 3196 3200 3204 3206 3208 3211 3214 3216 3218 3220 3220 3221 3222 3223
3126 3134 3136 3139 3141 3147 3148 3153 3153 3154 3156 3156 3154 3151 3149 3150 3148 3147 3151 3153 3158 3162 3165 3166 3169 3174 3178 3182 3187 3192 3195 3199 3202 3205 3208 3211 3214 3217 3219 3220 3221 3221 3222 3223
3120 3124 3129 3132 3135 3143 3144 3150 3152 3153 3153 3152 3150 3152 3142 3146 3145 3145 3146 3148 3152 3157 3161 3162 3163 3170 3176 3180 3185 3190 3193 3196 3200 3204 3207 3211 3213 3216 3219 3220 3222 3222 3223 3224
3117 3120 3123 3126 3134 3138 3144 3146 3148 3150 3151 3150 3147 3153 3136 3139 3139 3141 3142 3143 3146 3151 3155 3159 3160 3166 3171 3176 3181 3186 3190 3194 3197 3202 3205 3209 3212 3215 3218 3220 3221 3223 3224 3225
3111 3113 3117 3123 3127 3133 3138 3142 3146 3147 3147 3142 3143 3146 3135 3134 3134 3134 3134 3138 3142 3147 3151 3155 3155 3158 3165 3171 3176 3182 3186 3191 3195 3199 3203 3207 3210 3213 3217 3220 3221 3223 3224 3225
3107 3108 3111 3117 3120 3126 3130 3134 3137 3143 3141 3137 3139 3134 3129 3129 3129 3127 3128 3133 3139 3142 3146 3149 3152 3154 3160 3167 3172 3178 3182 3187 3191 3196 3201 3205 3208 3212 3215 3218 3221 3222 3223 3224
3101 3100 3107 3111 3116 3122 3124 3125 3133 3136 3134 3137 3133 3129 3126 3125 3127 3126 3127 3127 3131 3138 3142 3145 3149 3152 3156 3162 3168 3173 3179 3184 3188 3193 3197 3202 3206 3210 3213 3216 3219 3222 3223 3223
3096 3098 3101 3106 3112 3115 3117 3125 3127 3127 3133 3135 3126 3125 3123 3124 3124 3124 3124 3124 3129 3133 3136 3140 3145 3149 3153 3157 3164 3170 3174 3180 3185 3189 3194 3198 3203 3207 3211 3214 3217 3220 3222 3222
3091 3095 3098 3102 3101 3106 3112 3114 3119 3122 3122 3122 3124 3119 3121 3122 3121 3122 3124 3124 3126 3128 3131 3134 3139 3145 3149 3153 3157 3163 3169 3175 3179 3184 3190 3194 3199 3204 3208 3211 3215 3218 3219 3221
3090 3089 3091 3092 3098 3103 3105 3109 3114 3116 3115 3115 3114 3112 3117 3118 3118 3119 3121 3123 3123 3125 3129 3132 3135 3140 3144 3148 3152 3156 3163 3168 3174 3180 3184 3190 3195 3199 3204 3208 3212 3215 3217 3219
3089 3089 3088 3089 3096 3098 3099 3101 3105 3108 3110 3107 3111 3109 3112 3113 3114 3114 3116 3119 3119 3122 3124 3127 3130 3134 3138 3143 3148 3152 3156 3163 3169 3173 3179 3184 3190 3195 3200 3205 3209 3212 3214 3216
3089 3088 3089 3090 3090 3092 3093 3096 3099 3101 3102 3101 3100 3104 3107 3108 3110 3111 3111 3114 3116 3118 3121 3124 3126 3130 3134 3138 3143 3148 3151 3156 3163 3168 3173 3179 3185 3192 3197 3202 3205 3208 3210 3212
3087 3086 3087 3088 3087 3089 3089 3092 3094 3095 3098 3096 3096 3097 3101 3105 3106 3108 3109 3110 3111 3112 3115 3119 3121 3126 3130 3133 3137 3142 3148 3151 3156 3161 3167 3173 3181 3187 3192 3196 3201 3204 3206 3208
3085 3086 3084 3084 3085 3085 3086 3088 3089 3091 3090 3090 3089 3089 3096 3100 3101 3104 3105 3106 3108 3110 3111 3113 3116 3119 3124 3129 3133 3137 3142 3145 3149 3154 3161 3168 3174 3180 3186 3192 3196 3199 3202 3204
3084 3084 3083 3081 3080 3082 3084 3084 3085 3085 3083 3084 3083 3085 3087 3091 3095 3098 3101 3101 3102 3103 3105 3106 3109 3114 3120 3124 3128 3131 3137 3140 3142 3148 3155 3161 3167 3174 3181 3187 3190 3194 3197 3199
3081 3083 3082 3078 3077 3079 3078 3079 3080 3079 3078 3079 3078 3076 3079 3084 3090 3093 3094 3095 3097 3098 3099 3101 3103 3108 3114 3119 3123 3127 3130 3133 3137 3142 3148 3154 3160 3167 3174 3179 3184 3189 3191 3194
3079 3080 3080 3078 3075 3072 3072 3074 3074 3074 3075 3073 3073 3072 3073 3078 3083 3086 3090 3091 3093 3094 3093 3090 3098 3104 3109 3112 3116 3120 3124 3127 3131 3136 3141 3147 3153 3160 3167 3172 3178 3183 3185 3188
3073 3076 3078 3076 3073 3068 3068 3069 3070 3068 3072 3070 3069 3067 3069 3072 3074 3082 3085 3088 3089 3090 3091 3090 3095 3099 3103 3107 3110 3114 3118 3122 3126 3131 3137 3142 3147 3153 3159 3167 3172 3177 3179 3182
3067 3070 3072 3073 3071 3067 3065 3064 3064 3066 3071 3067 3067 3064 3064 3067 3071 3076 3078 3082 3085 3087 3088 3088 3091 3096 3099 3102 3105 3109 3113 3117 3124 3128 3132 3137 3142 3147 3154 3160 3165 3169 3172 3174
3064 3065 3067 3068 3069 3068 3064 3063 3064 3067 3066 3066 3065 3064 3062 3062 3066 3069 3073 3076 3081 3083 3085 3087 3089 3093 3094 3098 3101 3105 3108 3117 3120 3124 3128 3132 3137 3142 3148 3153 3158 3162 3165 3167
3064 3061 3059 3063 3065 3066 3063 3064 3064 3065 3065 3064 3063 3063 3062 3062 3063 3066 3069 3072 3076 3079 3081 3084 3088 3089 3091 3095 3098 3102 3108 3113 3117 3121 3125 3129 3133 3137 3142 3146 3151 3155 3158 3161
3056 3054 3055 3059 3059 3061 3062 3063 3063 3063 3063 3061 3060 3062 3061 3061 3061 3063 3065 3068 3072 3075 3078 3080 3083 3087 3089 3092 3096 3101 3105 3109 3113 3117 3122 3125 3129 3133 3137 3141 3145 3147 3151 3153
3055 3055 3054 3055 3054 3057 3060 3060 3060 3061 3059 3058 3057 3059 3061 3061 3061 3062 3063 3066 3069 3072 3075 3077 3078 3084 3088 3091 3093 3097 3101 3106 3110 3114 3117 3121 3125 3128 3131 3134 3137 3141 3144 3147
3050 3051 3052 3051 3052 3054 3056 3058 3057 3057 3056 3056 3057 3057 3059 3059 3059 3061 3063 3065 3068 3071 3072 3075 3077 3081 3085 3089 3091 3093 3096 3100 3105 3109 3112 3116 3120 3122 3125 3128 3131 3133 3136 3138